Tarboro, NC

8:30 AM EDT on March 25, 2017 (GMT -0400)
Tarboro-edgecombe

Weather History for KETC - January, 2013

Change the Weather History Date:

Monday, January 21, 2013

  Actual Average Record
Temperature  
Mean Temperature 44 °F -  
Max Temperature 60 °F 49 °F 75 °F (1951)
Min Temperature 28 °F 28 °F -5 °F (1985)
Degree Days  
Heating Degree Days 21    
Moisture  
Dew Point 30 °F    
Average Humidity 62    
Maximum Humidity 96    
Minimum Humidity 28    
Precipitation  
Precipitation 0.00 in - - ()
Sea Level Pressure  
Sea Level Pressure 29.99 in    
Wind  
Wind Speed 3 mph (SW)    
Max Wind Speed 12 mph    
Max Gust Speed 16 mph    
Visibility 10 miles    
Events      
Averages and records for this station are not official NWS values.
T = Trace of Precipitation, MM = Missing Value Source: NWS Daily Summary

Daily Weather History Graph

Daily Weather History Graph

Search for Another Location

Airport or City:

Trip Planner

Search our weather history database for the weather conditions in past years. The results will help you decide how hot, cold, wet, or windy it might be!

Date:

Astronomy

Jan. 21, 2013 Rise Set
Actual Time 7:17 AM EST 5:26 PM EST
Civil Twilight 6:50 AM EST 5:53 PM EST
Nautical Twilight 6:18 AM EST 6:24 PM EST
Astronomical Twilight 5:48 AM EST 6:55 PM EST
Moon 1:05 PM EST (1/21) 2:43 AM EST (1/21)
Length of Visible Light 11h 03m
Length of Day
10h 08m
Waxing Gibbous, 75% of the Moon is Illuminated
Jan 21
Waxing Gibbous
Jan 26
Full
Feb 3
Last Quarter
Feb 10
New
Feb 17
First Quarter

Hourly Weather History & Observations

Time (EST) Temp. Windchill Dew Point Humidity Pressure Visibility Wind Dir Wind Speed Gust Speed Precip Events Conditions
12:15 AM 34.7 °F 31.8 °F 31.3 °F 87% 30.08 in 10.0 mi NW 3.5 mph - N/A   Clear
12:35 AM 34.0 °F - 30.6 °F 87% 30.08 in 10.0 mi Calm Calm - N/A   Clear
12:55 AM 34.0 °F - 31.1 °F 89% 30.08 in 10.0 mi Calm Calm - N/A   Clear
1:15 AM 33.6 °F 30.6 °F 30.4 °F 88% 30.08 in 10.0 mi NW 3.5 mph - N/A   Clear
1:35 AM 32.4 °F 29.1 °F 29.8 °F 90% 30.08 in 10.0 mi NNW 3.5 mph - N/A   Clear
1:55 AM 32.2 °F - 29.5 °F 90% 30.08 in 10.0 mi Calm Calm - N/A   Clear
2:15 AM 32.7 °F - 30.4 °F 91% 30.08 in 10.0 mi Calm Calm - N/A   Clear
2:35 AM 33.3 °F - 30.6 °F 90% 30.08 in 10.0 mi Calm Calm - N/A   Clear
2:55 AM 32.9 °F - 30.7 °F 92% 30.08 in 10.0 mi Calm Calm - N/A   Clear
3:15 AM 32.0 °F - 29.7 °F 91% 30.07 in 10.0 mi Calm Calm - N/A   Clear
3:35 AM 30.9 °F - 28.4 °F 90% 30.07 in 10.0 mi Calm Calm - N/A   Clear
3:55 AM 31.5 °F - 29.3 °F 92% 30.07 in 10.0 mi Calm Calm - N/A   Clear
4:15 AM 32.2 °F - 30.2 °F 92% 30.06 in 10.0 mi Calm Calm - N/A   Clear
4:35 AM 30.7 °F - 28.6 °F 92% 30.06 in 10.0 mi Calm Calm - N/A   Clear
4:55 AM 31.3 °F - 29.5 °F 93% 30.06 in 10.0 mi Calm Calm - N/A   Clear
5:15 AM 30.9 °F - 28.8 °F 92% 30.07 in 10.0 mi Calm Calm - N/A   Clear
5:35 AM 30.9 °F - 29.5 °F 94% 30.08 in 10.0 mi Calm Calm - N/A   Clear
5:55 AM 30.6 °F - 29.3 °F 95% 30.08 in 10.0 mi Calm Calm - N/A   Clear
6:15 AM 31.5 °F - 30.4 °F 96% 30.08 in 10.0 mi Calm Calm - N/A   Clear
6:35 AM 30.2 °F - 28.9 °F 95% 30.08 in 10.0 mi Calm Calm - N/A   Clear
6:55 AM 30.7 °F - 29.5 °F 95% 30.08 in 1.5 mi Calm Calm - N/A   Mist
7:15 AM 29.1 °F - 28.0 °F 96% 30.08 in 7.0 mi Calm Calm - N/A   Clear
7:35 AM 28.4 °F - 27.1 °F 95% 30.08 in 10.0 mi Calm Calm - N/A   Clear
7:55 AM 29.1 °F - 27.7 °F 94% 30.08 in 10.0 mi Calm Calm - N/A   Clear
8:15 AM 30.9 °F - 29.5 °F 94% 30.08 in 10.0 mi Calm Calm - N/A   Clear
8:35 AM 33.3 °F - 31.3 °F 92% 30.08 in 10.0 mi Calm Calm - N/A   Clear
8:55 AM 36.9 °F - 32.9 °F 86% 30.09 in 10.0 mi Calm Calm - N/A   Clear
9:15 AM 40.5 °F - 32.5 °F 73% 30.09 in 10.0 mi Calm Calm - N/A   Clear
9:35 AM 43.3 °F 40.7 °F 32.9 °F 67% 30.09 in 10.0 mi ESE 4.6 mph - N/A   Clear
9:55 AM 45.9 °F 42.9 °F 32.9 °F 61% 30.09 in 10.0 mi ESE 5.8 mph - N/A   Clear
10:15 AM 48.0 °F - 33.8 °F 58% 30.08 in 10.0 mi SSE 5.8 mph - N/A   Clear
10:35 AM 50.0 °F - 34.5 °F 55% 30.08 in 10.0 mi SSE 8.1 mph - N/A   Clear
10:55 AM 51.6 °F - 34.9 °F 53% 30.06 in 10.0 mi SSE 8.1 mph - N/A   Clear
11:15 AM 53.6 °F - 33.8 °F 47% 30.05 in 10.0 mi SSE 9.2 mph - N/A   Clear
11:35 AM 54.1 °F - 31.8 °F 43% 30.02 in 10.0 mi SE 8.1 mph - N/A   Clear
11:55 AM 55.8 °F - 31.6 °F 40% 30.00 in 10.0 mi SSE 6.9 mph - N/A   Clear
12:15 PM 56.8 °F - 31.8 °F 39% 30.00 in 10.0 mi South 4.6 mph - N/A   Clear
12:35 PM 57.6 °F - 30.0 °F 35% 29.98 in 10.0 mi SSW 4.6 mph - N/A   Clear
12:55 PM 57.7 °F - 28.2 °F 32% 29.97 in 10.0 mi SW 6.9 mph - N/A   Clear
1:15 PM 58.6 °F - 26.2 °F 29% 29.95 in 10.0 mi South 3.5 mph - N/A   Clear
1:35 PM 59.2 °F - 25.9 °F 28% 29.94 in 10.0 mi South 6.9 mph - N/A   Clear
1:55 PM 59.5 °F - 26.4 °F 28% 29.93 in 10.0 mi SW 5.8 mph - N/A   Clear
2:15 PM 60.1 °F - 26.6 °F 28% 29.92 in 10.0 mi WSW 6.9 mph - N/A   Clear
2:35 PM 60.1 °F - 26.8 °F 28% 29.91 in 10.0 mi SSW 9.2 mph - N/A   Clear
2:55 PM 60.3 °F - 27.5 °F 29% 29.91 in 10.0 mi SW 9.2 mph - N/A   Clear
3:15 PM 60.1 °F - 27.1 °F 29% 29.89 in 10.0 mi SW 9.2 mph - N/A   Clear
3:35 PM 60.1 °F - 27.3 °F 29% 29.88 in 10.0 mi SW 11.5 mph 16.1 mph N/A   Clear
3:55 PM 59.9 °F - 27.9 °F 30% 29.88 in 10.0 mi SW 9.2 mph - N/A   Clear
4:15 PM 59.4 °F - 28.8 °F 31% 29.87 in 10.0 mi WSW 9.2 mph - N/A   Clear
4:35 PM 58.8 °F - 28.9 °F 32% 29.87 in 10.0 mi SW 4.6 mph - N/A   Clear
4:55 PM 57.6 °F - 29.5 °F 34% 29.86 in 10.0 mi SW 4.6 mph - N/A   Clear
5:15 PM 55.8 °F - 30.2 °F 38% 29.86 in 10.0 mi SSW 4.6 mph - N/A   Clear
5:35 PM 54.3 °F - 30.9 °F 41% 29.86 in 10.0 mi SW 4.6 mph - N/A   Clear
5:55 PM 53.1 °F - 31.5 °F 44% 29.86 in 10.0 mi SW 4.6 mph - N/A   Clear
6:15 PM 51.6 °F - 32.0 °F 47% 29.86 in 10.0 mi SW 5.8 mph - N/A   Clear
6:35 PM 51.4 °F - 32.0 °F 47% 29.87 in 10.0 mi SW 4.6 mph - N/A   Clear
6:55 PM 50.5 °F - 32.0 °F 49% 29.87 in 10.0 mi SW 4.6 mph - N/A   Clear
7:15 PM 49.1 °F - 32.5 °F 53% 29.86 in 10.0 mi SSW 5.8 mph - N/A   Clear
7:55 PM 49.1 °F - 33.1 °F 54% 29.87 in 10.0 mi SW 8.1 mph - N/A   Clear
8:15 PM 49.8 °F - 33.1 °F 53% 29.87 in 10.0 mi SW 9.2 mph - N/A   Clear
8:35 PM 50.0 °F - 32.9 °F 52% 29.87 in 10.0 mi SW 8.1 mph - N/A   Clear
8:55 PM 49.6 °F - 33.1 °F 53% 29.88 in 10.0 mi SW 8.1 mph - N/A   Clear
9:35 PM 48.0 °F - 32.5 °F 55% 29.91 in 10.0 mi West 6.9 mph - N/A   Clear
9:55 PM 47.3 °F - 32.0 °F 55% 29.91 in 10.0 mi West 9.2 mph - N/A   Clear
10:15 PM 47.8 °F - 30.2 °F 50% 29.92 in 10.0 mi West 8.1 mph - N/A   Clear
10:35 PM 47.3 °F - 27.7 °F 47% 29.92 in 10.0 mi West 8.1 mph - N/A   Clear
10:55 PM 46.4 °F 42.4 °F 25.5 °F 44% 29.93 in 10.0 mi WNW 8.1 mph - N/A   Clear
11:15 PM 46.4 °F 42.9 °F 22.8 °F 39% 29.93 in 10.0 mi NW 6.9 mph - N/A   Clear
11:35 PM 45.9 °F 41.2 °F 20.5 °F 37% 29.93 in 10.0 mi WNW 9.2 mph - N/A   Clear
11:55 PM 45.5 °F 40.8 °F 18.3 °F 34% 29.94 in 10.0 mi WNW 9.2 mph - N/A   Clear